| time (UTC) | temp F | wind direction | speed MPH | gust MPH | rain 1hr in | rain 24hr in | rain mn in | humidity % | barometer mb |
| 20260508144036 | 58 | 255 | 1.0 | 4.0 | 0.00 | 0.24 | 0.00 | 68 | 1018.0 |
| 20260508143536 | 57 | 255 | 1.0 | 4.0 | 0.00 | 0.24 | 0.00 | 67 | 1017.9 |
| 20260508143056 | 57 | 0 | 1.0 | 4.0 | 0.00 | 0.24 | 0.00 | 68 | 1017.9 |
| 20260508142534 | 56 | 249 | 1.0 | 4.0 | 0.00 | 0.24 | 0.00 | 69 | 1018.0 |
| 20260508142035 | 56 | 238 | 0.0 | 4.0 | 0.00 | 0.24 | 0.00 | 72 | 1018.1 |
| 20260508141551 | 55 | 270 | 0.0 | 2.0 | 0.00 | 0.24 | 0.00 | 75 | 1018.0 |
| 20260508141035 | 55 | 0 | 0.0 | 3.0 | 0.00 | 0.24 | 0.00 | 76 | 1017.8 |
| 20260508140533 | 54 | 271 | 0.0 | 3.0 | 0.00 | 0.24 | 0.00 | 76 | 1018.0 |
| 20260508140048 | 54 | 275 | 0.0 | 3.0 | 0.00 | 0.24 | 0.00 | 77 | 1017.9 |
| 20260508135533 | 53 | 291 | 1.0 | 3.0 | 0.00 | 0.25 | 0.00 | 79 | 1018.0 |
| 20260508135035 | 52 | 0 | 0.0 | 0.0 | 0.00 | 0.25 | 0.00 | 78 | 1018.0 |
| 20260508134545 | 52 | 0 | 0.0 | 0.0 | 0.00 | 0.25 | 0.00 | 77 | 1018.1 |
| 20260508134033 | 51 | 0 | 0.0 | 0.0 | 0.00 | 0.25 | 0.00 | 81 | 1018.2 |
| 20260508133538 | 51 | 0 | 0.0 | 0.0 | 0.00 | 0.25 | 0.00 | 84 | 1018.4 |
| 20260508133102 | 50 | 0 | 0.0 | 0.0 | 0.00 | 0.25 | 0.00 | 87 | 1018.3 |
| 20260508132536 | 50 | 0 | 0.0 | 0.0 | 0.00 | 0.25 | 0.00 | 88 | 1018.3 |
| 20260508132033 | 49 | 0 | 0.0 | 0.0 | 0.00 | 0.25 | 0.00 | 90 | 1018.3 |
| 20260508131546 | 49 | 0 | 0.0 | 0.0 | 0.00 | 0.25 | 0.00 | 91 | 1018.4 |
| 20260508131035 | 48 | 0 | 0.0 | 0.0 | 0.00 | 0.25 | 0.00 | 93 | 1018.4 |
| 20260508130535 | 47 | 0 | 0.0 | 0.0 | 0.00 | 0.25 | 0.00 | 94 | 1018.4 |
| 20260508130048 | 47 | 0 | 0.0 | 0.0 | 0.00 | 0.25 | 0.00 | 95 | 1018.5 |
| 20260508125535 | 46 | 0 | 0.0 | 0.0 | 0.00 | 0.26 | 0.00 | 95 | 1018.4 |
| 20260508125034 | 45 | 0 | 0.0 | 0.0 | 0.00 | 0.26 | 0.00 | 95 | 1018.4 |
| 20260508124545 | 45 | 0 | 0.0 | 0.0 | 0.00 | 0.26 | 0.00 | 95 | 1018.3 |
| 20260508124035 | 45 | 0 | 0.0 | 0.0 | 0.00 | 0.26 | 0.00 | 95 | 1018.2 |
| 20260508123536 | 45 | 0 | 0.0 | 0.0 | 0.00 | 0.26 | 0.00 | 95 | 1018.2 |
| 20260508123049 | 45 | 0 | 0.0 | 0.0 | 0.00 | 0.26 | 0.00 | 95 | 1018.1 |
| 20260508122536 | 44 | 0 | 0.0 | 0.0 | 0.00 | 0.26 | 0.00 | 95 | 1018.0 |
| 20260508122035 | 44 | 0 | 0.0 | 0.0 | 0.00 | 0.26 | 0.00 | 95 | 1018.1 |
| 20260508121545 | 43 | 0 | 0.0 | 0.0 | 0.00 | 0.26 | 0.00 | 95 | 1018.1 |
| 20260508121036 | 43 | 0 | 0.0 | 0.0 | 0.00 | 0.26 | 0.00 | 95 | 1017.9 |
| 20260508120537 | 43 | 0 | 0.0 | 0.0 | 0.00 | 0.26 | 0.00 | 95 | 1017.8 |
| 20260508120053 | 43 | 0 | 0.0 | 0.0 | 0.00 | 0.26 | 0.00 | 94 | 1017.7 |
| 20260508115534 | 43 | 0 | 0.0 | 0.0 | 0.00 | 0.27 | 0.00 | 94 | 1017.6 |
| 20260508115035 | 43 | 0 | 0.0 | 0.0 | 0.00 | 0.27 | 0.00 | 94 | 1017.5 |
| 20260508114545 | 43 | 0 | 0.0 | 0.0 | 0.00 | 0.27 | 0.00 | 94 | 1017.4 |
| 20260508114034 | 42 | 0 | 0.0 | 0.0 | 0.00 | 0.27 | 0.00 | 95 | 1017.2 |
| 20260508113534 | 42 | 0 | 0.0 | 0.0 | 0.00 | 0.27 | 0.00 | 94 | 1017.2 |
| 20260508113054 | 42 | 0 | 0.0 | 0.0 | 0.00 | 0.27 | 0.00 | 94 | 1017.2 |
| 20260508112533 | 42 | 0 | 0.0 | 0.0 | 0.00 | 0.27 | 0.00 | 94 | 1017.2 |
| 20260508112034 | 42 | 0 | 0.0 | 0.0 | 0.00 | 0.27 | 0.00 | 94 | 1017.0 |
| 20260508111549 | 42 | 0 | 0.0 | 0.0 | 0.00 | 0.27 | 0.00 | 94 | 1017.0 |
| 20260508111034 | 42 | 0 | 0.0 | 0.0 | 0.00 | 0.27 | 0.00 | 94 | 1016.8 |
| 20260508110535 | 42 | 0 | 0.0 | 0.0 | 0.00 | 0.27 | 0.00 | 94 | 1016.8 |
| 20260508110051 | 42 | 0 | 0.0 | 0.0 | 0.00 | 0.27 | 0.00 | 93 | 1016.7 |
| 20260508105534 | 42 | 0 | 0.0 | 0.0 | 0.00 | 0.28 | 0.00 | 93 | 1016.6 |
| 20260508105036 | 42 | 0 | 0.0 | 0.0 | 0.00 | 0.28 | 0.00 | 94 | 1016.3 |
| 20260508104548 | 42 | 0 | 0.0 | 0.0 | 0.00 | 0.28 | 0.00 | 94 | 1016.1 |
| 20260508104033 | 42 | 0 | 0.0 | 0.0 | 0.00 | 0.28 | 0.00 | 94 | 1015.9 |
| 20260508103534 | 42 | 0 | 0.0 | 0.0 | 0.00 | 0.28 | 0.00 | 94 | 1015.8 |
| 20260508103045 | 42 | 0 | 0.0 | 0.0 | 0.00 | 0.28 | 0.00 | 94 | 1015.8 |
| 20260508102533 | 42 | 0 | 0.0 | 0.0 | 0.00 | 0.28 | 0.00 | 94 | 1015.8 |
| 20260508102033 | 42 | 0 | 0.0 | 0.0 | 0.00 | 0.28 | 0.00 | 94 | 1015.7 |
| 20260508101547 | 42 | 0 | 0.0 | 0.0 | 0.00 | 0.28 | 0.00 | 94 | 1015.7 |
| 20260508101033 | 42 | 0 | 0.0 | 0.0 | 0.00 | 0.28 | 0.00 | 94 | 1015.7 |
| 20260508100533 | 43 | 0 | 0.0 | 0.0 | 0.00 | 0.28 | 0.00 | 94 | 1015.7 |
| 20260508100048 | 43 | 0 | 0.0 | 0.0 | 0.00 | 0.28 | 0.00 | 94 | 1015.8 |
| 20260508095536 | 43 | 0 | 0.0 | 0.0 | 0.00 | 0.29 | 0.00 | 94 | 1015.6 |
| 20260508095034 | 43 | 0 | 0.0 | 0.0 | 0.00 | 0.29 | 0.00 | 94 | 1015.6 |
| 20260508094545 | 43 | 0 | 0.0 | 0.0 | 0.00 | 0.29 | 0.00 | 94 | 1015.7 |
| 20260508094033 | 43 | 0 | 0.0 | 0.0 | 0.00 | 0.29 | 0.00 | 94 | 1015.6 |
| 20260508093536 | 43 | 0 | 0.0 | 0.0 | 0.00 | 0.29 | 0.00 | 94 | 1015.5 |
| 20260508093046 | 43 | 0 | 0.0 | 0.0 | 0.00 | 0.29 | 0.00 | 94 | 1015.3 |
| 20260508092533 | 43 | 0 | 0.0 | 0.0 | 0.00 | 0.29 | 0.00 | 93 | 1015.2 |
| 20260508092033 | 43 | 0 | 0.0 | 0.0 | 0.00 | 0.29 | 0.00 | 94 | 1015.2 |
| 20260508091610 | 43 | 0 | 0.0 | 0.0 | 0.00 | 0.29 | 0.00 | 94 | 1015.2 |
| 20260508091033 | 43 | 0 | 0.0 | 0.0 | 0.00 | 0.29 | 0.00 | 94 | 1015.3 |
| 20260508090533 | 43 | 0 | 0.0 | 0.0 | 0.00 | 0.29 | 0.00 | 94 | 1015.2 |
| 20260508090039 | 43 | 0 | 0.0 | 0.0 | 0.00 | 0.29 | 0.00 | 94 | 1015.2 |
| 20260508085537 | 44 | 0 | 0.0 | 0.0 | 0.00 | 0.31 | 0.00 | 94 | 1015.2 |
| 20260508085036 | 44 | 0 | 0.0 | 0.0 | 0.00 | 0.31 | 0.00 | 94 | 1015.3 |
| 20260508084549 | 44 | 0 | 0.0 | 0.0 | 0.00 | 0.31 | 0.00 | 94 | 1015.5 |
| 20260508084036 | 44 | 0 | 0.0 | 0.0 | 0.00 | 0.31 | 0.00 | 94 | 1015.5 |
| 20260508083534 | 44 | 0 | 0.0 | 0.0 | 0.00 | 0.31 | 0.00 | 94 | 1015.4 |
| 20260508083045 | 44 | 0 | 0.0 | 0.0 | 0.00 | 0.31 | 0.00 | 94 | 1015.3 |
| 20260508082535 | 44 | 0 | 0.0 | 0.0 | 0.00 | 0.31 | 0.00 | 94 | 1015.4 |
| 20260508082033 | 44 | 0 | 0.0 | 0.0 | 0.00 | 0.31 | 0.00 | 94 | 1015.3 |
| 20260508081546 | 43 | 0 | 0.0 | 0.0 | 0.00 | 0.31 | 0.00 | 93 | 1015.5 |
| 20260508081034 | 44 | 0 | 0.0 | 0.0 | 0.00 | 0.31 | 0.00 | 93 | 1015.6 |
| 20260508080533 | 44 | 0 | 0.0 | 0.0 | 0.00 | 0.31 | 0.00 | 93 | 1015.5 |
| 20260508080055 | 44 | 0 | 0.0 | 0.0 | 0.00 | 0.31 | 0.00 | 93 | 1015.5 |
| 20260508075532 | 44 | 0 | 0.0 | 0.0 | 0.00 | 0.32 | 0.00 | 93 | 1015.5 |
| 20260508075035 | 44 | 0 | 0.0 | 0.0 | 0.00 | 0.32 | 0.00 | 93 | 1015.5 |
| 20260508074546 | 44 | 0 | 0.0 | 0.0 | 0.00 | 0.32 | 0.00 | 93 | 1015.3 |
| 20260508074034 | 44 | 0 | 0.0 | 0.0 | 0.00 | 0.32 | 0.00 | 93 | 1015.5 |
| 20260508073534 | 44 | 0 | 0.0 | 0.0 | 0.00 | 0.32 | 0.00 | 93 | 1015.5 |
| 20260508073052 | 44 | 0 | 0.0 | 0.0 | 0.00 | 0.32 | 0.00 | 93 | 1015.5 |
| 20260508072533 | 44 | 0 | 0.0 | 0.0 | 0.00 | 0.32 | 0.00 | 93 | 1015.4 |
| 20260508072034 | 44 | 0 | 0.0 | 0.0 | 0.00 | 0.32 | 0.00 | 93 | 1015.2 |
| 20260508071545 | 44 | 0 | 0.0 | 0.0 | 0.00 | 0.32 | 0.00 | 93 | 1015.5 |
| 20260508071034 | 44 | 0 | 0.0 | 0.0 | 0.00 | 0.32 | 0.00 | 93 | 1015.3 |
| 20260508070534 | 45 | 0 | 0.0 | 0.0 | 0.00 | 0.32 | 0.00 | 93 | 1015.2 |
| 20260508070049 | 44 | 0 | 0.0 | 0.0 | 0.00 | 0.32 | 0.00 | 93 | 1015.3 |
| 20260508065534 | 44 | 0 | 0.0 | 0.0 | 0.00 | 0.34 | 0.00 | 93 | 1015.3 |
| 20260508065033 | 44 | 0 | 0.0 | 0.0 | 0.00 | 0.34 | 0.00 | 93 | 1015.3 |
| 20260508064550 | 45 | 0 | 0.0 | 0.0 | 0.00 | 0.34 | 0.00 | 93 | 1015.5 |
| 20260508064035 | 45 | 0 | 0.0 | 0.0 | 0.00 | 0.34 | 0.00 | 93 | 1015.5 |
| 20260508063534 | 45 | 0 | 0.0 | 0.0 | 0.00 | 0.34 | 0.00 | 93 | 1015.5 |
| 20260508063120 | 45 | 0 | 0.0 | 0.0 | 0.00 | 0.34 | 0.00 | 93 | 1015.5 |
| 20260508062534 | 45 | 0 | 0.0 | 0.0 | 0.00 | 0.34 | 0.00 | 93 | 1015.4 |
| 20260508062037 | 45 | 0 | 0.0 | 0.0 | 0.00 | 0.34 | 0.00 | 93 | 1015.3 |
| 20260508061552 | 45 | 0 | 0.0 | 0.0 | 0.00 | 0.34 | 0.00 | 93 | 1015.2 |
| 20260508061033 | 45 | 0 | 0.0 | 0.0 | 0.00 | 0.34 | 0.00 | 93 | 1015.3 |
| 20260508060537 | 45 | 0 | 0.0 | 0.0 | 0.00 | 0.34 | 0.00 | 93 | 1015.3 |
| 20260508060049 | 45 | 0 | 0.0 | 0.0 | 0.00 | 0.34 | 0.00 | 93 | 1015.3 |
| 20260508055534 | 46 | 0 | 0.0 | 0.0 | 0.00 | 0.36 | 0.00 | 93 | 1015.4 |
| 20260508055034 | 46 | 0 | 0.0 | 0.0 | 0.00 | 0.36 | 0.00 | 93 | 1015.3 |
| 20260508054549 | 46 | 0 | 0.0 | 0.0 | 0.00 | 0.36 | 0.00 | 93 | 1015.4 |
| 20260508054033 | 46 | 0 | 0.0 | 0.0 | 0.00 | 0.36 | 0.00 | 93 | 1015.3 |
| 20260508053533 | 46 | 0 | 0.0 | 0.0 | 0.00 | 0.36 | 0.00 | 93 | 1015.3 |
| 20260508053058 | 46 | 0 | 0.0 | 0.0 | 0.00 | 0.36 | 0.00 | 93 | 1015.3 |
| 20260508052535 | 46 | 0 | 0.0 | 0.0 | 0.00 | 0.36 | 0.00 | 93 | 1015.4 |
| 20260508052034 | 46 | 0 | 0.0 | 0.0 | 0.00 | 0.36 | 0.00 | 93 | 1015.4 |
| 20260508051609 | 46 | 0 | 0.0 | 0.0 | 0.00 | 0.36 | 0.00 | 92 | 1015.4 |
| 20260508051033 | 46 | 0 | 0.0 | 0.0 | 0.00 | 0.36 | 0.00 | 92 | 1015.5 |
| 20260508050534 | 46 | 0 | 0.0 | 0.0 | 0.00 | 0.36 | 0.00 | 92 | 1015.3 |
| 20260508050043 | 46 | 0 | 0.0 | 0.0 | 0.00 | 0.36 | 0.00 | 92 | 1015.3 |
| 20260508045534 | 46 | 0 | 0.0 | 0.0 | 0.00 | 0.38 | 0.00 | 92 | 1015.5 |
| 20260508045036 | 46 | 0 | 0.0 | 0.0 | 0.00 | 0.38 | 0.00 | 92 | 1015.4 |
| 20260508044540 | 46 | 0 | 0.0 | 0.0 | 0.00 | 0.38 | 0.00 | 92 | 1015.3 |
| 20260508044033 | 46 | 0 | 0.0 | 0.0 | 0.00 | 0.38 | 0.00 | 92 | 1015.3 |
| 20260508043534 | 46 | 0 | 0.0 | 0.0 | 0.00 | 0.38 | 0.00 | 92 | 1015.2 |
| 20260508043045 | 46 | 0 | 0.0 | 0.0 | 0.00 | 0.38 | 0.00 | 92 | 1015.2 |
| 20260508042534 | 47 | 0 | 0.0 | 0.0 | 0.00 | 0.38 | 0.00 | 92 | 1015.1 |
| 20260508042033 | 47 | 0 | 0.0 | 0.0 | 0.00 | 0.38 | 0.00 | 92 | 1015.1 |
| 20260508041546 | 47 | 0 | 0.0 | 0.0 | 0.00 | 0.38 | 0.00 | 92 | 1015.1 |
| 20260508041035 | 47 | 0 | 0.0 | 0.0 | 0.00 | 0.38 | 0.00 | 92 | 1015.1 |
| 20260508040533 | 47 | 0 | 0.0 | 0.0 | 0.00 | 0.38 | 0.00 | 92 | 1015.1 |
| 20260508040048 | 47 | 0 | 0.0 | 0.0 | 0.00 | 0.38 | 0.00 | 92 | 1015.1 |
| 20260508035533 | 47 | 0 | 0.0 | 0.0 | 0.00 | 0.41 | 0.38 | 91 | 1015.2 |
| 20260508035034 | 47 | 0 | 0.0 | 0.0 | 0.00 | 0.41 | 0.38 | 91 | 1015.2 |
| 20260508034549 | 47 | 0 | 0.0 | 0.0 | 0.00 | 0.41 | 0.38 | 92 | 1015.0 |
| 20260508034034 | 48 | 0 | 0.0 | 0.0 | 0.00 | 0.41 | 0.38 | 91 | 1015.1 |
| 20260508033532 | 48 | 0 | 0.0 | 0.0 | 0.00 | 0.41 | 0.38 | 91 | 1015.3 |
| 20260508033051 | 48 | 0 | 0.0 | 0.0 | 0.00 | 0.41 | 0.38 | 91 | 1015.2 |
| 20260508032534 | 48 | 0 | 0.0 | 0.0 | 0.00 | 0.41 | 0.38 | 91 | 1015.2 |
| 20260508032034 | 48 | 0 | 0.0 | 0.0 | 0.00 | 0.41 | 0.38 | 91 | 1015.2 |
| 20260508031548 | 48 | 0 | 0.0 | 0.0 | 0.00 | 0.41 | 0.38 | 91 | 1015.2 |
| 20260508031033 | 48 | 0 | 0.0 | 0.0 | 0.00 | 0.41 | 0.38 | 91 | 1015.3 |
| 20260508030535 | 48 | 0 | 0.0 | 0.0 | 0.00 | 0.41 | 0.38 | 91 | 1015.2 |
| 20260508030047 | 48 | 0 | 0.0 | 0.0 | 0.00 | 0.41 | 0.38 | 91 | 1015.1 |
| 20260508025537 | 49 | 0 | 0.0 | 0.0 | 0.00 | 0.43 | 0.38 | 91 | 1015.3 |
| 20260508025033 | 49 | 0 | 0.0 | 0.0 | 0.00 | 0.43 | 0.38 | 91 | 1015.4 |
| 20260508024542 | 49 | 0 | 0.0 | 0.0 | 0.00 | 0.43 | 0.38 | 90 | 1015.4 |
| 20260508024033 | 49 | 0 | 0.0 | 0.0 | 0.00 | 0.43 | 0.38 | 90 | 1015.2 |
| 20260508023533 | 49 | 0 | 0.0 | 0.0 | 0.00 | 0.43 | 0.38 | 90 | 1015.1 |
| 20260508023047 | 49 | 0 | 0.0 | 0.0 | 0.00 | 0.43 | 0.38 | 90 | 1015.2 |
| 20260508022533 | 49 | 0 | 0.0 | 0.0 | 0.00 | 0.43 | 0.38 | 90 | 1015.3 |
| 20260508022033 | 49 | 0 | 0.0 | 0.0 | 0.00 | 0.43 | 0.38 | 89 | 1015.4 |
| 20260508021553 | 49 | 0 | 0.0 | 0.0 | 0.00 | 0.43 | 0.38 | 90 | 1015.5 |
| 20260508021034 | 50 | 0 | 0.0 | 0.0 | 0.00 | 0.43 | 0.38 | 89 | 1015.2 |
| 20260508020532 | 50 | 0 | 0.0 | 0.0 | 0.00 | 0.43 | 0.38 | 89 | 1015.1 |
| 20260508020046 | 50 | 0 | 0.0 | 0.0 | 0.00 | 0.43 | 0.38 | 89 | 1015.2 |
| 20260508015532 | 50 | 0 | 0.0 | 0.0 | 0.00 | 0.46 | 0.38 | 89 | 1015.1 |
| 20260508015033 | 50 | 0 | 0.0 | 0.0 | 0.00 | 0.46 | 0.38 | 89 | 1015.0 |
| 20260508014544 | 50 | 0 | 0.0 | 0.0 | 0.00 | 0.46 | 0.38 | 89 | 1014.7 |
| 20260508014034 | 51 | 0 | 0.0 | 0.0 | 0.00 | 0.46 | 0.38 | 88 | 1014.6 |
| 20260508013535 | 51 | 0 | 0.0 | 0.0 | 0.00 | 0.46 | 0.38 | 88 | 1014.6 |
| 20260508013050 | 51 | 0 | 0.0 | 0.0 | 0.00 | 0.46 | 0.38 | 88 | 1014.5 |
| 20260508012533 | 51 | 0 | 0.0 | 0.0 | 0.00 | 0.46 | 0.38 | 87 | 1014.5 |
| 20260508012033 | 52 | 0 | 0.0 | 0.0 | 0.00 | 0.46 | 0.38 | 87 | 1014.4 |
| 20260508011552 | 52 | 0 | 0.0 | 0.0 | 0.00 | 0.46 | 0.38 | 86 | 1014.3 |
| 20260508011036 | 52 | 0 | 0.0 | 0.0 | 0.00 | 0.46 | 0.38 | 86 | 1014.4 |
| 20260508010537 | 53 | 0 | 0.0 | 0.0 | 0.00 | 0.46 | 0.38 | 86 | 1014.3 |
| 20260508010101 | 53 | 0 | 0.0 | 0.0 | 0.00 | 0.46 | 0.38 | 85 | 1014.3 |
| 20260508005539 | 53 | 0 | 0.0 | 0.0 | 0.00 | 0.50 | 0.38 | 84 | 1014.3 |
| 20260508005034 | 53 | 0 | 0.0 | 3.0 | 0.00 | 0.50 | 0.38 | 84 | 1014.4 |
| 20260508004547 | 54 | 0 | 0.0 | 3.0 | 0.00 | 0.50 | 0.38 | 84 | 1014.1 |
| 20260508004035 | 54 | 0 | 0.0 | 3.0 | 0.00 | 0.50 | 0.38 | 82 | 1014.0 |
| 20260508003533 | 55 | 0 | 0.0 | 3.0 | 0.00 | 0.50 | 0.38 | 82 | 1014.0 |
| 20260508003044 | 55 | 0 | 0.0 | 2.0 | 0.00 | 0.50 | 0.38 | 83 | 1014.0 |
| 20260508002533 | 56 | 173 | 0.0 | 2.0 | 0.00 | 0.50 | 0.38 | 83 | 1014.0 |
| 20260508002033 | 56 | 0 | 0.0 | 4.0 | 0.00 | 0.50 | 0.38 | 79 | 1014.0 |
| 20260508001558 | 56 | 0 | 1.0 | 4.0 | 0.00 | 0.50 | 0.38 | 79 | 1013.8 |
| 20260508001033 | 56 | 0 | 1.0 | 4.0 | 0.00 | 0.50 | 0.38 | 78 | 1013.7 |
| 20260508000532 | 56 | 19 | 0.0 | 2.0 | 0.00 | 0.50 | 0.38 | 79 | 1013.6 |
| 20260508000052 | 56 | 34 | 0.0 | 1.0 | 0.00 | 0.50 | 0.38 | 78 | 1013.5 |
| 20260507235533 | 56 | 0 | 0.0 | 2.0 | 0.00 | 0.54 | 0.38 | 80 | 1013.6 |
| 20260507235034 | 56 | 0 | 0.0 | 2.0 | 0.00 | 0.54 | 0.38 | 78 | 1013.6 |
| 20260507234548 | 57 | 0 | 0.0 | 2.0 | 0.00 | 0.54 | 0.38 | 80 | 1013.6 |
| 20260507234033 | 57 | 0 | 0.0 | 2.0 | 0.00 | 0.54 | 0.38 | 79 | 1013.5 |
| 20260507233534 | 57 | 0 | 0.0 | 2.0 | 0.00 | 0.54 | 0.38 | 78 | 1013.2 |
| 20260507233046 | 57 | 0 | 0.0 | 2.0 | 0.00 | 0.54 | 0.38 | 74 | 1013.2 |
| 20260507232534 | 58 | 0 | 0.0 | 2.0 | 0.00 | 0.54 | 0.38 | 75 | 1013.2 |
| 20260507232033 | 58 | 0 | 0.0 | 2.0 | 0.00 | 0.54 | 0.38 | 76 | 1013.1 |
| 20260507231546 | 58 | 0 | 0.0 | 3.0 | 0.00 | 0.54 | 0.38 | 76 | 1013.2 |
| 20260507231033 | 58 | 0 | 0.0 | 3.0 | 0.00 | 0.54 | 0.38 | 74 | 1013.2 |
| 20260507230533 | 59 | 74 | 0.0 | 3.0 | 0.00 | 0.54 | 0.38 | 77 | 1013.2 |
| 20260507230111 | 59 | 74 | 0.0 | 3.0 | 0.00 | 0.54 | 0.38 | 74 | 1013.4 |
| 20260507225534 | 59 | 0 | 0.0 | 3.0 | 0.00 | 0.58 | 0.38 | 74 | 1013.4 |
| 20260507225033 | 60 | 0 | 0.0 | 3.0 | 0.00 | 0.58 | 0.38 | 78 | 1013.2 |
| 20260507224549 | 60 | 0 | 0.0 | 3.0 | 0.00 | 0.58 | 0.38 | 78 | 1013.1 |
| 20260507224033 | 60 | 302 | 0.0 | 3.0 | 0.00 | 0.58 | 0.38 | 76 | 1013.2 |
| 20260507223537 | 59 | 246 | 1.0 | 3.0 | 0.00 | 0.58 | 0.38 | 74 | 1013.3 |
| 20260507223132 | 59 | 0 | 0.0 | 2.0 | 0.00 | 0.58 | 0.38 | 78 | 1013.3 |
| 20260507222533 | 59 | 296 | 0.0 | 3.0 | 0.00 | 0.58 | 0.38 | 77 | 1013.2 |
| 20260507222033 | 59 | 0 | 0.0 | 3.0 | 0.00 | 0.58 | 0.38 | 75 | 1013.1 |
| 20260507221545 | 59 | 255 | 0.0 | 3.0 | 0.00 | 0.58 | 0.38 | 76 | 1013.1 |
| 20260507221033 | 59 | 0 | 0.0 | 3.0 | 0.00 | 0.58 | 0.38 | 80 | 1013.1 |
| 20260507220533 | 59 | 250 | 0.0 | 3.0 | 0.00 | 0.58 | 0.38 | 80 | 1013.0 |
| 20260507220052 | 59 | 248 | 1.0 | 3.0 | 0.00 | 0.58 | 0.38 | 80 | 1013.2 |
| 20260507215533 | 59 | 260 | 0.0 | 6.0 | 0.00 | 0.63 | 0.38 | 79 | 1013.0 |
| 20260507215036 | 59 | 0 | 1.0 | 6.0 | 0.00 | 0.63 | 0.38 | 79 | 1012.8 |
| 20260507214556 | 59 | 259 | 1.0 | 10.0 | 0.00 | 0.63 | 0.38 | 78 | 1012.6 |
| 20260507214033 | 59 | 276 | 3.0 | 10.0 | 0.00 | 0.63 | 0.38 | 78 | 1012.6 |
| 20260507213534 | 59 | 244 | 3.0 | 10.0 | 0.00 | 0.63 | 0.38 | 79 | 1012.5 |
| 20260507213121 | 59 | 250 | 2.0 | 12.0 | 0.00 | 0.63 | 0.38 | 79 | 1012.4 |
| 20260507212535 | 59 | 270 | 3.0 | 12.0 | 0.00 | 0.63 | 0.38 | 78 | 1012.4 |
| 20260507212034 | 60 | 260 | 2.0 | 14.0 | 0.00 | 0.63 | 0.38 | 78 | 1012.4 |
| 20260507211548 | 60 | 263 | 4.0 | 14.0 | 0.00 | 0.63 | 0.38 | 76 | 1012.3 |
| 20260507211032 | 61 | 213 | 4.0 | 13.0 | 0.00 | 0.63 | 0.38 | 76 | 1012.1 |
| 20260507210532 | 61 | 271 | 4.0 | 16.0 | 0.00 | 0.63 | 0.38 | 76 | 1011.9 |
| 20260507210050 | 61 | 250 | 5.0 | 16.0 | 0.00 | 0.63 | 0.38 | 76 | 1011.9 |
| 20260507205536 | 61 | 271 | 5.0 | 15.0 | 0.00 | 0.67 | 0.38 | 77 | 1011.9 |
| 20260507205034 | 61 | 253 | 6.0 | 15.0 | 0.00 | 0.67 | 0.38 | 77 | 1011.9 |
| 20260507204544 | 62 | 245 | 6.0 | 18.0 | 0.00 | 0.67 | 0.38 | 77 | 1011.8 |
| 20260507204034 | 62 | 252 | 6.0 | 18.0 | 0.00 | 0.67 | 0.38 | 76 | 1011.8 |
| 20260507203534 | 62 | 261 | 6.0 | 16.0 | 0.00 | 0.67 | 0.38 | 77 | 1011.5 |
| 20260507203054 | 63 | 279 | 6.0 | 15.0 | 0.00 | 0.67 | 0.38 | 77 | 1011.5 |
| 20260507202534 | 63 | 254 | 7.0 | 15.0 | 0.00 | 0.67 | 0.38 | 75 | 1011.3 |
| 20260507202036 | 64 | 259 | 5.0 | 14.0 | 0.00 | 0.67 | 0.38 | 76 | 1011.4 |
| 20260507201603 | 64 | 261 | 5.0 | 16.0 | 0.00 | 0.67 | 0.38 | 76 | 1011.5 |
| 20260507201034 | 64 | 261 | 5.0 | 16.0 | 0.00 | 0.67 | 0.38 | 76 | 1011.5 |
| 20260507200533 | 64 | 254 | 5.0 | 15.0 | 0.00 | 0.67 | 0.38 | 76 | 1011.5 |
| 20260507200055 | 64 | 263 | 6.0 | 14.0 | 0.00 | 0.67 | 0.38 | 74 | 1011.6 |
| 20260507195533 | 65 | 244 | 4.0 | 12.0 | 0.00 | 0.71 | 0.38 | 74 | 1011.6 |
| 20260507195036 | 65 | 228 | 5.0 | 14.0 | 0.00 | 0.71 | 0.38 | 76 | 1011.7 |
| 20260507194545 | 65 | 252 | 4.0 | 18.0 | 0.00 | 0.71 | 0.38 | 76 | 1011.7 |
| 20260507194035 | 65 | 237 | 6.0 | 18.0 | 0.00 | 0.71 | 0.38 | 75 | 1011.6 |
| 20260507193534 | 66 | 267 | 4.0 | 11.0 | 0.00 | 0.71 | 0.38 | 74 | 1011.8 |
| 20260507193048 | 66 | 261 | 5.0 | 12.0 | 0.00 | 0.71 | 0.38 | 75 | 1011.7 |
| 20260507192533 | 66 | 240 | 3.0 | 12.0 | 0.00 | 0.71 | 0.38 | 76 | 1011.7 |
| 20260507192032 | 65 | 269 | 6.0 | 13.0 | 0.00 | 0.71 | 0.38 | 77 | 1011.7 |
| 20260507191553 | 65 | 248 | 6.0 | 13.0 | 0.00 | 0.71 | 0.38 | 76 | 1011.6 |
| 20260507191037 | 66 | 238 | 4.0 | 15.0 | 0.00 | 0.71 | 0.38 | 77 | 1011.8 |
| 20260507190533 | 65 | 233 | 6.0 | 15.0 | 0.00 | 0.71 | 0.38 | 76 | 1011.7 |
| 20260507190052 | 66 | 252 | 5.0 | 14.0 | 0.00 | 0.71 | 0.38 | 77 | 1011.5 |
| 20260507185532 | 65 | 250 | 3.0 | 16.0 | 0.00 | 0.74 | 0.38 | 78 | 1011.7 |
| 20260507185035 | 65 | 259 | 4.0 | 16.0 | 0.00 | 0.74 | 0.38 | 78 | 1011.8 |
| 20260507184546 | 65 | 256 | 4.0 | 11.0 | 0.00 | 0.74 | 0.38 | 78 | 1011.9 |
| 20260507184033 | 65 | 267 | 2.0 | 13.0 | 0.00 | 0.74 | 0.38 | 79 | 1012.0 |
| 20260507183534 | 65 | 258 | 3.0 | 13.0 | 0.00 | 0.74 | 0.38 | 81 | 1012.0 |
| 20260507183045 | 64 | 263 | 3.0 | 13.0 | 0.00 | 0.74 | 0.38 | 81 | 1011.9 |
| 20260507182533 | 63 | 259 | 4.0 | 13.0 | 0.00 | 0.74 | 0.38 | 82 | 1012.1 |
| 20260507182033 | 63 | 254 | 3.0 | 13.0 | 0.00 | 0.74 | 0.38 | 82 | 1012.1 |
| 20260507181543 | 63 | 234 | 5.0 | 12.0 | 0.00 | 0.74 | 0.38 | 82 | 1012.1 |
| 20260507181033 | 63 | 248 | 4.0 | 11.0 | 0.00 | 0.74 | 0.38 | 83 | 1012.2 |
| 20260507180535 | 62 | 259 | 3.0 | 11.0 | 0.00 | 0.74 | 0.38 | 84 | 1012.3 |
| 20260507180054 | 62 | 250 | 3.0 | 10.0 | 0.19 | 0.74 | 0.38 | 85 | 1012.3 |
| 20260507175533 | 61 | 201 | 4.0 | 12.0 | 0.20 | 0.79 | 0.38 | 86 | 1012.4 |
| 20260507175033 | 61 | 257 | 5.0 | 12.0 | 0.20 | 0.79 | 0.38 | 86 | 1012.4 |
| 20260507174555 | 61 | 275 | 3.0 | 14.0 | 0.20 | 0.79 | 0.38 | 87 | 1012.5 |
| 20260507174034 | 61 | 257 | 4.0 | 14.0 | 0.20 | 0.79 | 0.38 | 87 | 1012.5 |
| 20260507173533 | 61 | 271 | 4.0 | 13.0 | 0.20 | 0.79 | 0.38 | 87 | 1012.5 |
| 20260507173049 | 61 | 261 | 5.0 | 13.0 | 0.20 | 0.79 | 0.38 | 86 | 1012.6 |
| 20260507172538 | 61 | 261 | 4.0 | 12.0 | 0.20 | 0.79 | 0.38 | 86 | 1012.5 |
| 20260507172032 | 62 | 243 | 5.0 | 12.0 | 0.20 | 0.79 | 0.38 | 86 | 1012.6 |
| 20260507171557 | 62 | 249 | 6.0 | 12.0 | 0.21 | 0.79 | 0.38 | 85 | 1012.5 |
| 20260507171033 | 62 | 261 | 5.0 | 11.0 | 0.21 | 0.79 | 0.38 | 85 | 1012.3 |
| 20260507170533 | 62 | 254 | 3.0 | 11.0 | 0.21 | 0.79 | 0.38 | 85 | 1012.4 |
| 20260507170048 | 63 | 257 | 4.0 | 15.0 | 0.02 | 0.60 | 0.19 | 85 | 1012.3 |
| 20260507165533 | 63 | 259 | 4.0 | 15.0 | 0.01 | 0.64 | 0.18 | 84 | 1012.3 |
| 20260507165032 | 63 | 245 | 4.0 | 11.0 | 0.01 | 0.64 | 0.18 | 85 | 1012.2 |
| 20260507164543 | 63 | 251 | 4.0 | 11.0 | 0.01 | 0.64 | 0.18 | 85 | 1012.0 |
| 20260507164033 | 62 | 259 | 4.0 | 11.0 | 0.01 | 0.64 | 0.18 | 86 | 1012.1 |
| 20260507163535 | 62 | 260 | 4.0 | 11.0 | 0.02 | 0.64 | 0.18 | 85 | 1012.0 |
| 20260507163043 | 62 | 267 | 3.0 | 11.0 | 0.02 | 0.64 | 0.18 | 86 | 1012.1 |
| 20260507162534 | 62 | 232 | 4.0 | 11.0 | 0.02 | 0.64 | 0.18 | 86 | 1012.2 |
| 20260507162033 | 62 | 222 | 4.0 | 10.0 | 0.02 | 0.64 | 0.18 | 86 | 1012.0 |
| 20260507161553 | 62 | 257 | 3.0 | 10.0 | 0.01 | 0.63 | 0.17 | 86 | 1011.9 |
| 20260507161033 | 62 | 259 | 3.0 | 12.0 | 0.01 | 0.63 | 0.17 | 86 | 1011.9 |
| 20260507160535 | 62 | 271 | 3.0 | 12.0 | 0.01 | 0.63 | 0.17 | 86 | 1011.7 |
| 20260507160048 | 62 | 243 | 4.0 | 11.0 | 0.01 | 0.63 | 0.17 | 87 | 1011.8 |
| 20260507155535 | 62 | 261 | 3.0 | 10.0 | 0.02 | 0.70 | 0.17 | 88 | 1011.7 |
| 20260507155034 | 62 | 257 | 4.0 | 10.0 | 0.02 | 0.70 | 0.17 | 89 | 1011.8 |
| 20260507154546 | 62 | 265 | 3.0 | 10.0 | 0.02 | 0.70 | 0.17 | 89 | 1011.7 |
| 20260507154036 | 62 | 254 | 4.0 | 10.0 | 0.02 | 0.70 | 0.17 | 91 | 1011.8 |
| 20260507153534 | 61 | 243 | 3.0 | 9.0 | 0.01 | 0.69 | 0.16 | 93 | 1012.0 |
| 20260507153043 | 61 | 251 | 2.0 | 9.0 | 0.01 | 0.69 | 0.16 | 94 | 1012.0 |
| 20260507152536 | 61 | 257 | 3.0 | 9.0 | 0.01 | 0.69 | 0.16 | 94 | 1012.0 |
| 20260507152035 | 61 | 245 | 2.0 | 9.0 | 0.01 | 0.69 | 0.16 | 95 | 1011.9 |
| 20260507151553 | 61 | 258 | 3.0 | 9.0 | 0.01 | 0.69 | 0.16 | 95 | 1011.9 |
| 20260507151034 | 61 | 253 | 3.0 | 9.0 | 0.01 | 0.69 | 0.16 | 96 | 1012.0 |
| 20260507150534 | 61 | 268 | 3.0 | 9.0 | 0.02 | 0.69 | 0.16 | 96 | 1012.1 |
| 20260507150051 | 61 | 257 | 3.0 | 9.0 | 0.02 | 0.69 | 0.16 | 97 | 1012.0 |
| 20260507145533 | 60 | 252 | 2.0 | 10.0 | 0.01 | 0.75 | 0.15 | 97 | 1012.1 |
| 20260507145032 | 60 | 241 | 2.0 | 10.0 | 0.01 | 0.75 | 0.15 | 97 | 1012.1 |
| 20260507144543 | 60 | 261 | 3.0 | 11.0 | 0.01 | 0.75 | 0.15 | 97 | 1012.2 |